Date String (YYYY-MM-DD hh:mm:ss) UTC,Instrument flags,absolute air pressure of the measurement (hPa),sample flow rate (lpm),inlet stack bypass flow (lpm),air temperature of the measurement (°C),ambient temperature measured by the external sensor (°C),aerosol sample conditioner tube jacket temperature (°C),OPC LED temperature (°C),internal box temperature (°C),relative humidity of the measurement (%),span deviation,mass concentration of particles derived from Lorenz-Mie calculation of OPC scattering (μg/m³),mass concentration of particles derived from Lorenz-Mie calculation of OPC scattering (μg/m³),mass concentration of particles derived from Lorenz-Mie calculation of OPC scattering (μg/m³)
DateTimeUTC,F1_M11,P_M11,Q1_M11,Q2_M11,T1_M11,T2_M11,T3_M11,T4_M11,T5_M11,U1_M11,ZSPAN_M11,X2_M11,X0_M11,X1_M11
2024-04-08 09:00:00,SystemResetWarning,0823.5,4.99,000.00,018.3,017.6,000.0,026.9,020.0,013.5,0000.0,0001.91,0004.53,0001.25
2024-04-08 09:01:00,SystemResetWarning,0823.5,5.00,000.00,018.3,017.5,000.0,026.9,020.0,013.5,0000.0,0001.92,0004.55,0001.25
2024-04-08 09:02:00,SystemResetWarning,0823.4,5.00,000.00,018.3,017.5,000.0,027.0,020.0,013.6,0000.0,0001.95,0004.99,0001.27
2024-04-08 09:03:00,SystemResetWarning,0823.4,5.00,000.00,018.3,017.5,000.0,027.0,020.0,013.6,0000.0,0001.95,0005.49,0001.26
2024-04-08 09:04:00,SystemResetWarning,0823.5,5.00,000.00,018.3,017.4,000.0,027.0,020.0,013.6,0000.0,0001.92,0005.45,0001.26
2024-04-08 09:05:00,SystemResetWarning,0823.5,5.00,000.00,018.3,017.4,000.0,027.0,020.0,013.6,0000.0,0001.91,0004.92,0001.27
2024-04-08 09:06:00,SystemResetWarning,0823.5,5.00,000.00,018.3,017.4,000.0,027.0,020.0,013.5,0000.0,0001.93,0004.31,0001.27
2024-04-08 09:07:00,SystemResetWarning,0823.5,5.00,000.00,018.3,017.3,000.0,027.0,020.0,013.5,0000.0,0001.91,0004.34,0001.27
2024-04-08 09:08:00,SystemResetWarning,0823.5,5.00,000.00,018.3,017.3,000.0,027.0,020.0,013.4,0000.0,0001.96,0005.03,0001.27
2024-04-08 09:09:00,SystemResetWarning,0823.6,5.00,000.00,018.2,017.2,000.0,027.0,020.0,013.3,0000.0,0001.92,0004.95,0001.26
2024-04-08 09:10:00,SystemResetWarning,0823.4,5.00,000.00,018.2,017.2,000.0,027.0,020.0,013.4,0000.0,0001.93,0004.96,0001.25
2024-04-08 09:11:00,SystemResetWarning,0823.4,5.00,000.00,018.2,017.2,000.0,027.0,020.0,013.5,0000.0,0001.90,0004.81,0001.24
2024-04-08 09:12:00,SystemResetWarning,0823.4,5.01,000.00,018.2,017.2,000.0,027.0,020.0,013.4,0000.0,0001.91,0004.77,0001.24
2024-04-08 09:13:00,SystemResetWarning,0823.4,5.01,000.00,018.2,017.2,000.0,027.0,020.0,013.3,0000.0,0001.88,0004.91,0001.23
2024-04-08 09:14:00,SystemResetWarning,0823.5,5.01,000.00,018.2,017.3,000.0,027.0,020.0,013.6,0000.0,0001.89,0004.95,0001.24
2024-04-08 09:15:00,SystemResetWarning,0823.5,5.00,000.00,018.2,017.3,000.0,027.0,020.0,013.6,0000.0,0001.98,0005.20,0001.25
2024-04-08 09:16:00,SystemResetWarning,0823.4,5.00,000.00,018.2,017.3,000.0,027.0,020.0,013.6,0000.0,0002.03,0005.31,0001.25
2024-04-08 09:17:00,SystemResetWarning,0823.5,4.99,000.00,018.2,017.3,000.0,026.9,020.0,013.5,0000.0,0002.00,0005.22,0001.25
2024-04-08 09:18:00,SystemResetWarning,0823.5,5.00,000.00,018.2,017.3,000.0,026.9,020.0,013.5,0000.0,0001.98,0005.24,0001.23
2024-04-08 09:19:00,SystemResetWarning,0823.4,4.99,000.00,018.2,017.3,000.0,026.9,020.0,013.4,0000.0,0001.88,0004.42,0001.23
2024-04-08 09:20:00,SystemResetWarning,0823.4,5.00,000.00,018.2,017.3,000.0,026.9,020.0,012.9,0000.0,0001.87,0004.25,0001.23
2024-04-08 09:21:00,SystemResetWarning,0823.3,5.01,000.00,018.2,017.3,000.0,026.9,020.0,012.5,0000.0,0001.86,0004.60,0001.25
2024-04-08 09:22:00,SystemResetWarning,0823.3,5.01,000.00,018.2,017.3,000.0,026.9,020.0,012.2,0000.0,0001.86,0004.77,0001.25
2024-04-08 09:23:00,SystemResetWarning,0823.0,5.00,000.00,018.2,017.3,000.0,026.9,020.0,011.9,0000.0,0001.87,0005.18,0001.25
2024-04-08 09:24:00,SystemResetWarning,0823.0,5.00,000.00,018.2,017.4,000.0,026.9,020.0,011.7,0000.0,0001.93,0006.40,0001.26
2024-04-08 09:25:00,SystemResetWarning,0823.0,5.00,000.00,018.3,017.6,000.0,027.0,020.2,012.0,0000.0,0001.93,0005.35,0001.25
2024-04-08 09:26:00,SystemResetWarning,0823.2,5.01,000.00,018.4,018.5,000.0,027.1,020.6,012.2,0000.0,0001.91,0005.36,0001.23
2024-04-08 09:27:00,SystemResetWarning,0823.3,4.99,000.00,018.7,019.2,000.0,027.1,021.1,012.2,0000.0,0001.89,0005.33,0001.23
2024-04-08 09:28:00,SystemResetWarning,0823.4,4.98,000.00,018.8,019.1,000.0,027.1,021.0,012.0,0000.0,0001.88,0005.37,0001.22
2024-04-08 09:29:00,SystemResetWarning,0823.3,5.01,000.00,018.8,018.9,000.0,027.1,020.8,011.8,0000.0,0001.91,0005.59,0001.22
2024-04-08 09:30:00,SystemResetWarning,0823.3,5.00,000.00,018.8,018.7,000.0,027.1,020.7,011.8,0000.0,0001.97,0005.74,0001.24
2024-04-08 09:31:00,SystemResetWarning,0823.3,5.00,000.00,018.8,018.5,000.0,027.1,020.6,011.8,0000.0,0001.99,0005.82,0001.23
2024-04-08 09:32:00,SystemResetWarning,0823.3,4.99,000.00,018.7,018.4,000.0,027.1,020.5,011.6,0000.0,0002.00,0006.93,0001.23
2024-04-08 09:33:00,SystemResetWarning,0823.3,5.00,000.00,018.7,018.2,000.0,027.1,020.4,011.4,0000.0,0001.95,0007.37,0001.23
2024-04-08 09:34:00,SystemResetWarning,0823.3,5.00,000.00,018.7,018.1,000.0,027.1,020.4,011.4,0000.0,0001.97,0007.54,0001.23
2024-04-08 09:35:00,SystemResetWarning,0823.3,5.00,000.00,018.6,018.0,000.0,027.1,020.3,011.4,0000.0,0001.95,0006.66,0001.24
2024-04-08 09:36:00,SystemResetWarning,0823.3,5.00,000.00,018.6,018.0,000.0,027.1,020.3,011.6,0000.0,0002.01,0006.92,0001.25
2024-04-08 09:37:00,SystemResetWarning,0823.3,5.01,000.00,018.6,017.9,000.0,027.1,020.2,011.7,0000.0,0001.99,0006.77,0001.25
2024-04-08 09:38:00,SystemResetWarning,0823.3,5.00,000.00,018.6,017.9,000.0,027.1,020.2,011.7,0000.0,0001.95,0006.78,0001.26
2024-04-08 09:39:00,SystemResetWarning,0823.3,5.00,000.00,018.5,017.8,000.0,027.1,020.2,011.8,0000.0,0001.95,0006.93,0001.26
2024-04-08 09:40:00,SystemResetWarning,0823.4,5.00,000.00,018.5,017.8,000.0,027.1,020.2,011.6,0000.0,0001.94,0006.76,0001.26
2024-04-08 09:41:00,SystemResetWarning,0823.3,5.00,000.00,018.5,017.8,000.0,027.1,020.1,011.7,0000.0,0001.97,0006.79,0001.26
2024-04-08 09:42:00,SystemResetWarning,0823.4,5.00,000.00,018.5,017.8,000.0,027.1,020.1,011.9,0000.0,0002.00,0006.93,0001.27
2024-04-08 09:43:00,SystemResetWarning,0823.4,4.99,000.00,018.4,017.7,000.0,027.1,020.1,011.9,0000.0,0001.99,0005.97,0001.27
2024-04-08 09:44:00,SystemResetWarning,0823.4,5.00,000.00,018.4,017.7,000.0,027.1,020.1,011.8,0000.0,0002.01,0004.67,0001.27
2024-04-08 09:45:00,SystemResetWarning,0823.3,5.00,000.00,018.4,017.7,000.0,027.0,020.1,011.8,0000.0,0002.01,0004.32,0001.26
2024-04-08 09:46:00,SystemResetWarning,0823.3,5.00,000.00,018.4,017.7,000.0,027.0,020.1,011.5,0000.0,0001.99,0004.08,0001.24
2024-04-08 09:47:00,SystemResetWarning,0823.2,5.00,000.00,018.4,017.7,000.0,027.0,020.0,011.1,0000.0,0001.94,0003.80,0001.24
2024-04-08 09:48:00,SystemResetWarning,0823.2,5.00,000.00,018.4,017.7,000.0,027.0,020.0,011.1,0000.0,0001.94,0003.68,0001.25
2024-04-08 09:49:00,SystemResetWarning,0823.3,5.00,000.00,018.4,017.7,000.0,027.0,020.0,011.4,0000.0,0001.97,0003.65,0001.27
2024-04-08 09:50:00,SystemResetWarning,0823.3,5.00,000.00,018.3,017.6,000.0,027.0,020.0,011.5,0000.0,0002.00,0003.45,0001.28
2024-04-08 09:51:00,SystemResetWarning,0823.3,5.00,000.00,018.3,017.6,000.0,027.0,020.0,011.8,0000.0,0001.97,0003.39,0001.29
2024-04-08 09:52:00,SystemResetWarning,0823.4,5.00,000.00,018.3,017.6,000.0,027.0,020.0,012.0,0000.0,0001.90,0003.20,0001.30
2024-04-08 09:53:00,SystemResetWarning,0823.4,5.00,000.00,018.3,017.5,000.0,027.0,020.0,012.1,0000.0,0001.86,0003.01,0001.30
2024-04-08 09:54:00,SystemResetWarning,0823.4,5.00,000.00,018.3,017.4,000.0,027.0,020.0,012.6,0000.0,0001.88,0003.01,0001.31
2024-04-08 09:55:00,SystemResetWarning,0823.4,5.00,000.00,018.3,017.4,000.0,027.0,020.0,012.2,0000.0,0001.85,0002.92,0001.31
2024-04-08 09:56:00,SystemResetWarning,0823.4,5.00,000.00,018.3,017.4,000.0,027.0,020.0,012.5,0000.0,0001.89,0003.00,0001.32
2024-04-08 09:57:00,SystemResetWarning,0823.4,5.00,000.00,018.3,017.4,000.0,027.0,020.0,011.9,0000.0,0001.95,0003.12,0001.34
2024-04-08 09:58:00,SystemResetWarning,0823.4,5.00,000.00,018.3,017.4,000.0,027.0,020.0,011.7,0000.0,0001.93,0003.12,0001.32
2024-04-08 09:59:00,SystemResetWarning,0823.4,5.00,000.00,018.3,017.4,000.0,027.0,020.0,011.7,0000.0,0001.90,0003.11,0001.31
